Theta_e
311 311 313 312 312 301 308 308 304 306 312 308 305 305 305 303 301 299 308 307 309 315 317 321 329 329 329 331 332 331 333 336 339 338 339 340 341 341 342 341 342 344 347 348 349 352 350 350 352 352 354 353 355 355 354 358 359 360 360 362 360 360 361
311 313 313 313 313 312 309 303 307 313 314 311 306 299 304 300 297 302 306 302 304 307 304 320 323 324 325 328 329 328 332 334 336 338 340 342 342 342 343 343 345 346 348 350 351 350 350 352 354 352 355 354 355 353 350 355 354 359 356 357 356 357 360
310 311 311 309 312 313 309 308 315 305 301 299 305 302 295 296 296 299 302 305 306 309 310 313 315 317 321 326 330 330 328 331 335 337 340 343 343 343 343 344 345 346 349 350 350 349 350 354 355 353 353 353 351 350 352 354 353 355 356 355 355 356 357
309 309 308 302 306 310 312 314 310 312 309 305 303 304 304 303 297 298 300 304 302 312 313 313 314 319 323 325 327 328 329 331 334 337 340 342 343 343 343 343 346 347 347 347 351 351 352 353 353 351 352 352 350 353 356 355 355 355 355 354 355 354 354
308 303 306 304 307 305 305 306 305 308 307 311 310 309 305 302 301 301 300 299 305 313 319 318 320 322 325 326 327 330 332 333 334 338 340 343 344 344 344 343 345 344 344 345 347 349 351 353 353 352 352 352 351 353 354 356 355 352 350 351 352 354 355
303 305 310 309 309 310 308 306 305 307 304 303 299 300 308 306 303 299 302 300 309 314 325 328 326 328 327 330 329 328 332 335 340 340 343 345 345 346 345 345 344 343 345 345 347 350 354 351 350 349 350 353 352 354 355 357 356 355 350 348 352 354 355
305 308 310 312 311 311 310 310 307 310 309 308 303 296 304 306 307 308 308 304 308 322 325 327 329 330 332 331 331 330 334 339 343 342 343 346 347 346 345 346 345 348 349 348 348 351 352 351 352 352 352 352 352 358 359 358 356 356 354 352 352 355 355
309 310 311 312 312 310 308 310 311 310 307 308 306 306 310 307 307 304 305 302 306 322 331 330 330 333 336 338 335 334 334 339 345 346 346 347 347 347 346 348 348 351 351 351 351 352 351 352 353 353 354 355 355 357 358 358 354 356 357 356 354 353 354
304 306 308 308 311 310 307 307 309 311 311 310 310 311 312 306 307 306 303 298 305 322 330 334 335 331 331 331 335 339 334 337 342 346 348 348 348 348 348 350 351 352 352 352 353 354 353 352 353 354 354 355 355 354 354 353 352 354 356 356 355 354 355
295 295 296 299 302 305 308 309 309 310 309 309 308 304 308 301 308 308 304 304 311 318 328 330 330 328 331 332 334 339 340 339 341 344 346 347 347 347 347 350 351 351 354 356 357 356 355 353 354 355 355 353 352 352 352 352 352 354 355 357 356 354 354
302 305 307 310 311 307 304 307 309 308 310 311 310 309 306 303 310 307 308 308 309 312 318 327 328 329 328 332 336 334 338 342 344 346 347 347 348 348 349 349 350 353 353 353 356 357 357 356 354 354 355 353 353 353 353 354 354 355 356 356 356 354 353
308 309 309 309 310 306 307 307 306 309 308 310 309 306 304 311 307 302 309 314 308 310 313 318 325 328 328 329 334 335 337 340 341 345 348 347 349 350 351 350 350 351 353 353 354 356 357 357 357 356 356 355 354 354 354 355 357 357 358 358 356 355 355
309 309 309 309 308 308 308 308 308 307 308 309 308 308 309 310 306 302 310 313 311 311 313 316 320 326 328 328 333 337 339 341 344 346 346 346 347 348 348 351 352 353 353 354 355 356 356 357 357 358 358 357 356 356 357 357 358 358 359 360 358 357 356
308 308 308 309 308 308 308 308 308 309 309 309 309 309 310 309 310 310 310 312 311 313 314 316 319 324 324 329 338 342 341 340 343 343 343 344 347 347 347 349 351 353 355 356 356 356 356 356 356 357 357 357 357 357 357 358 359 360 359 357 356 356 355
306 308 309 308 308 308 307 308 308 308 309 309 309 309 310 311 310 311 312 313 312 320 329 332 336 334 337 338 335 334 339 341 340 341 341 344 346 346 348 351 351 352 354 355 356 356 356 357 357 357 358 358 359 359 359 358 358 359 359 357 356 356 355
304 307 307 307 307 307 307 307 308 308 307 307 308 308 310 310 309 312 313 310 310 318 329 332 337 335 332 329 331 335 339 340 341 340 342 342 343 345 349 351 351 352 354 354 355 355 356 357 358 358 358 358 358 357 358 358 358 358 358 357 356 356 357
303 307 308 306 306 306 303 305 308 309 309 310 310 312 312 313 312 311 307 308 314 320 329 326 331 330 330 328 330 333 339 341 341 341 340 341 341 343 347 348 349 351 352 354 355 356 357 359 358 359 360 359 357 358 357 358 359 358 357 356 357 356 357
303 307 306 307 304 297 299 311 313 312 309 309 309 310 312 315 314 313 314 321 327 328 325 318 325 328 330 330 334 337 340 340 340 341 340 339 340 342 344 347 349 351 351 352 355 357 358 359 359 358 357 356 357 358 358 359 357 357 357 357 356 355 356
303 307 306 301 297 299 315 316 316 314 313 312 311 312 313 315 317 315 317 319 322 327 324 322 325 330 334 333 341 340 339 341 339 339 340 340 341 342 344 348 348 350 351 353 356 358 359 359 359 356 355 356 357 356 357 356 356 356 356 356 357 356 355
308 305 302 295 298 312 312 314 315 318 315 314 312 311 313 316 316 316 316 317 325 327 331 335 341 340 338 340 342 342 345 341 336 335 338 341 341 343 346 348 351 351 352 354 355 356 360 360 357 355 355 356 354 355 356 355 356 355 355 355 354 355 355
302 303 301 301 311 308 309 308 313 312 311 313 311 306 311 318 318 317 317 323 328 327 330 332 336 337 334 333 336 340 340 343 337 335 336 338 340 343 347 347 348 350 354 353 356 359 359 357 355 353 354 354 353 352 352 353 353 353 352 351 351 352 351
307 302 300 301 301 299 305 311 316 317 318 318 316 312 310 316 317 319 320 324 328 331 332 333 335 337 326 320 329 337 338 341 340 339 340 340 343 342 344 347 348 352 353 355 356 355 356 355 354 354 354 353 353 352 351 352 351 350 350 349 351 350 349
304 304 300 299 298 302 312 313 315 318 320 316 319 311 306 316 317 320 321 323 329 331 329 332 336 324 318 318 324 336 337 339 341 340 340 341 341 343 346 347 349 350 353 353 353 356 355 352 352 353 354 352 351 350 350 350 349 349 349 349 348 348 349
305 303 300 299 304 305 313 315 316 316 319 317 314 301 302 314 317 321 323 322 326 330 333 334 331 321 315 316 328 334 337 339 340 340 340 340 342 343 344 345 349 354 357 355 352 353 353 352 353 353 352 351 350 348 348 349 347 347 348 348 350 349 349
304 304 302 304 305 314 317 316 319 317 317 315 304 298 307 321 322 325 324 324 330 334 336 332 324 325 332 335 337 343 340 342 342 342 343 344 344 343 344 347 354 352 351 349 348 352 354 352 351 352 351 350 348 347 347 346 346 349 351 351 349 348 348
303 304 301 301 306 315 317 321 318 319 314 304 302 320 326 324 327 327 325 325 331 337 338 332 327 337 344 348 347 344 346 346 349 348 347 345 345 346 351 352 350 348 345 351 352 352 353 350 350 350 349 348 347 347 346 346 347 349 347 347 346 347 345
306 306 302 299 295 318 319 319 315 318 310 315 320 326 328 322 328 327 326 328 333 336 336 336 339 337 339 340 341 345 347 349 348 348 347 348 348 348 349 349 349 346 346 347 350 351 349 348 349 348 348 346 346 346 345 346 346 347 346 346 346 345 344
303 303 301 300 315 318 323 320 315 320 326 326 329 325 327 326 326 327 328 330 332 331 337 336 332 335 339 342 344 345 346 346 348 348 348 348 350 347 346 346 346 345 346 349 350 349 348 349 349 347 347 346 345 346 346 346 346 346 346 346 346 344 343
308 309 311 316 322 323 324 325 323 327 328 329 329 328 326 326 327 330 331 332 335 335 338 335 334 333 335 338 339 342 344 345 345 346 346 346 346 344 344 343 348 348 347 351 349 347 347 347 348 348 348 345 345 345 345 346 346 346 345 344 343 341 340
317 319 320 322 323 323 324 325 327 326 328 331 330 329 328 330 331 329 331 336 336 337 339 334 332 332 333 335 336 339 341 343 345 346 346 345 345 345 346 349 353 356 355 353 351 347 345 346 346 347 347 347 345 345 346 347 346 345 344 343 341 340 340
310 305 321 320 320 323 324 325 329 331 332 333 332 333 334 333 332 330 330 335 337 339 343 337 339 339 340 341 342 344 345 346 346 344 346 345 345 345 345 351 354 352 349 346 347 347 345 344 344 344 346 344 347 347 346 345 344 345 343 342 341 340 340
312 315 319 320 323 326 327 327 327 329 331 333 336 335 337 336 335 332 335 334 337 341 338 339 337 333 336 341 344 344 346 345 345 346 346 347 347 349 351 353 351 348 346 345 345 345 344 343 344 344 344 345 346 346 344 344 344 344 342 342 340 339 338
316 320 321 321 324 324 324 325 328 330 331 333 335 335 336 336 335 335 336 336 336 336 336 337 333 331 332 334 335 335 340 342 343 346 347 350 352 352 352 352 351 348 348 347 347 346 343 343 344 345 346 345 346 345 346 346 346 343 341 339 339 338 338
312 315 318 321 316 316 321 322 326 330 333 334 334 334 334 337 338 336 334 335 337 338 339 338 333 332 333 332 333 331 339 341 345 348 350 349 349 352 353 352 352 351 350 349 347 345 343 344 344 345 346 346 346 345 346 346 346 344 341 340 338 338 338
312 319 323 327 326 324 325 326 329 331 334 334 333 333 333 334 336 337 335 335 336 337 339 341 334 339 340 339 336 335 335 342 347 347 348 347 349 350 351 350 350 349 349 349 347 345 343 344 344 345 346 346 347 347 347 346 346 345 342 340 339 337 337
320 325 324 327 328 324 326 329 331 331 336 332 331 333 334 335 336 336 336 336 336 336 336 338 340 340 339 339 336 336 337 341 347 347 347 346 348 349 349 348 349 348 348 348 346 344 344 344 344 345 345 346 347 347 347 347 346 346 344 341 339 337 337
322 327 328 330 330 329 329 331 333 333 334 332 330 332 334 335 337 338 338 338 338 336 333 334 338 339 340 340 340 341 339 343 345 347 349 349 349 346 344 345 348 348 347 347 346 344 344 344 344 344 344 346 347 345 348 347 346 344 343 341 338 337 337
Wind_Speed
10 14 14 15 10 9 9 8 10 9 3 7 6 6 5 7 6 9 2 5 8 3 6 5 4 5 5 5 3 3 1 2 1 2 3 5 7 9 11 12 12 13 12 11 10 11 10 9 10 11 12 12 11 11 10 7 8 10 11 11 11 10 11
13 4 5 11 14 10 3 9 9 3 2 8 6 7 4 7 7 2 2 7 2 1 1 6 7 5 6 5 3 0 2 0 1 2 2 4 5 8 11 11 11 12 11 12 11 10 10 10 12 12 13 10 6 4 3 6 7 10 10 10 11 10 11
9 7 7 7 7 7 11 7 7 9 9 11 8 6 8 6 7 4 3 2 3 4 1 3 5 5 4 5 4 1 1 2 3 3 5 5 6 7 9 10 11 11 11 11 10 10 11 11 11 11 10 10 11 10 9 7 7 8 8 8 9 9 10
9 9 10 12 11 10 10 6 7 6 6 6 5 7 7 4 5 6 1 3 2 3 0 3 6 8 5 6 5 3 2 4 3 4 6 7 7 8 10 11 11 11 10 9 9 10 10 10 10 9 11 10 12 10 9 8 8 8 8 10 9 10 9
8 10 10 13 11 11 12 11 12 8 8 3 6 1 8 5 5 4 3 3 1 2 1 6 3 5 5 6 5 4 3 4 5 5 5 6 7 8 8 9 9 10 11 11 10 9 9 9 8 8 10 13 12 11 12 12 12 11 11 10 11 10 9
8 8 13 14 11 10 12 11 12 11 10 9 10 8 5 6 5 3 4 4 4 1 3 2 4 4 6 5 5 5 5 6 5 5 5 6 7 8 9 9 9 9 10 11 11 10 9 10 10 9 8 9 11 10 10 11 11 10 10 10 10 10 10
8 8 7 2 6 8 9 10 12 12 9 9 9 6 6 5 6 5 5 3 3 6 2 3 5 5 5 6 4 6 5 6 5 5 6 5 5 7 8 8 8 9 9 9 11 11 11 11 10 9 9 11 11 10 10 10 10 11 10 9 8 8 9
1 4 5 4 4 8 11 12 12 7 10 9 8 6 1 4 3 5 3 4 1 4 5 3 5 4 4 3 3 5 6 6 6 6 6 6 5 5 7 7 7 7 8 8 9 11 11 10 11 12 10 9 8 8 9 8 10 10 10 8 8 8 9
7 7 7 7 7 8 9 10 12 11 9 8 3 2 2 5 5 4 4 3 3 6 5 5 5 7 7 8 6 4 6 6 7 7 6 6 6 6 6 7 7 7 8 9 9 10 11 11 10 10 10 9 8 7 6 6 7 8 8 7 8 8 8
11 11 11 11 10 10 9 10 12 14 13 9 7 8 5 5 5 4 4 4 3 4 5 6 9 9 8 8 8 5 4 7 7 7 7 7 7 7 7 7 7 8 7 7 8 9 10 10 10 10 9 9 9 8 9 9 9 8 9 9 9 9 8
8 8 2 1 9 10 11 12 11 12 13 10 11 5 5 7 5 6 5 5 1 9 7 9 10 9 11 10 9 8 7 6 6 7 6 6 6 7 8 8 7 7 7 8 9 10 10 11 12 11 10 10 9 9 10 10 8 8 8 9 8 8 9
14 8 5 4 9 11 12 12 14 13 13 13 12 7 8 8 5 7 3 6 7 3 7 5 6 10 9 10 9 9 7 7 7 7 7 7 7 6 6 6 7 8 8 8 8 9 10 10 10 10 10 9 9 9 9 9 9 8 7 8 8 9 8
17 16 5 6 7 9 9 12 13 15 14 14 14 13 10 7 8 4 6 7 9 5 3 10 12 10 10 10 10 9 8 8 7 8 8 8 7 7 7 6 6 6 7 7 8 8 8 9 10 10 9 9 9 9 9 9 9 9 9 9 10 10 9
14 13 8 7 9 8 8 9 8 11 14 14 14 13 12 11 10 8 4 6 9 7 4 4 8 11 10 9 8 7 8 9 8 8 8 8 7 7 7 7 6 6 6 6 7 7 7 8 8 8 7 7 8 9 9 9 10 10 10 11 11 11 11
11 12 10 9 11 10 11 10 10 10 11 13 14 13 10 10 10 7 8 6 7 3 4 5 6 7 8 10 10 9 8 9 9 8 8 7 7 6 6 6 6 6 6 6 6 6 6 6 7 6 6 6 6 7 7 8 8 8 9 9 9 10 11
9 11 11 11 11 12 12 12 11 11 12 12 11 11 9 10 11 10 6 6 6 4 5 5 5 8 10 11 11 9 8 9 9 8 8 8 7 7 7 7 6 6 6 7 6 6 6 6 6 6 6 6 6 6 6 6 6 6 7 8 9 9 9
9 8 10 11 11 10 12 13 13 12 11 11 9 10 9 12 10 8 7 9 5 2 6 6 7 10 10 11 11 10 9 9 9 8 8 8 8 8 7 7 7 6 6 6 6 6 5 5 5 5 4 5 5 5 6 5 5 6 6 7 7 7 8
7 8 8 8 9 12 11 6 12 13 13 12 12 11 12 13 11 7 7 3 3 6 8 10 10 11 11 10 9 9 10 10 9 8 8 7 8 8 7 7 7 6 5 5 5 5 5 5 5 4 3 3 3 3 3 4 5 5 5 6 6 7 8
7 6 7 9 12 11 5 3 3 8 11 11 12 11 11 10 12 10 8 6 5 5 5 5 8 8 8 8 10 9 10 9 9 9 8 8 8 8 8 8 7 6 6 5 5 5 5 5 4 4 3 3 3 3 4 5 5 5 5 6 6 6 7
2 6 9 10 10 5 5 5 5 5 3 7 9 11 10 11 12 12 11 7 5 6 5 4 5 6 8 7 7 8 8 8 8 9 8 9 9 9 8 8 7 7 6 6 6 5 5 5 5 3 4 3 3 3 3 3 3 4 3 4 5 5 5
9 9 10 9 6 5 7 5 8 9 9 10 11 10 10 9 9 11 10 6 6 6 6 6 6 7 7 7 6 6 7 7 7 8 8 9 8 8 7 8 7 5 5 6 6 6 5 5 4 3 3 3 3 2 3 2 2 2 2 3 3 2 3
9 9 9 10 6 10 7 4 5 8 1 6 10 10 7 8 11 11 10 8 7 8 7 7 7 7 7 8 6 7 9 8 7 6 7 8 7 7 7 6 7 7 6 6 7 6 7 6 4 4 3 3 3 3 3 2 2 2 2 2 1 1 2
8 10 11 11 11 6 4 8 5 5 2 3 4 7 9 6 10 8 10 9 9 9 10 10 9 7 6 5 5 10 11 10 9 8 8 8 8 8 8 7 8 8 7 6 7 7 6 6 4 4 3 3 3 3 2 2 1 2 1 1 1 2 1
8 10 11 11 8 3 3 4 4 2 3 3 7 9 9 12 14 15 13 11 10 10 10 11 9 9 7 7 7 13 14 11 10 9 9 9 9 8 8 8 7 8 8 8 7 6 6 6 5 4 3 2 2 1 2 1 2 2 3 2 2 1 2
9 11 10 9 5 6 4 5 3 2 3 5 9 11 2 2 12 12 12 10 10 10 11 10 9 4 5 8 12 11 13 11 9 9 8 8 8 8 9 9 10 9 8 6 6 6 6 5 4 4 3 3 3 2 2 3 3 2 3 3 1 1 0
10 9 12 10 3 4 4 5 3 3 6 9 10 3 4 7 5 10 11 10 10 10 11 10 6 8 11 12 12 14 13 12 11 9 10 9 9 9 10 11 8 8 7 7 8 7 6 4 4 3 3 2 2 2 3 3 3 3 2 2 2 3 2
7 7 9 6 8 4 3 6 1 1 7 2 4 5 5 3 4 8 9 8 8 8 8 6 9 12 13 14 14 13 13 13 12 11 11 10 10 10 10 9 8 7 7 7 7 6 4 3 3 3 3 3 3 3 3 4 3 4 4 3 3 2 2
6 8 10 4 4 3 4 4 1 3 4 4 4 5 3 5 2 4 6 5 6 8 8 9 10 12 14 13 14 13 12 12 12 11 10 10 9 9 8 7 7 6 6 7 7 5 3 3 2 1 2 2 3 3 4 4 4 3 4 3 2 2 1
4 2 4 5 2 3 3 3 3 4 5 4 4 4 5 5 3 3 1 3 4 7 9 10 11 11 13 13 13 13 12 12 12 11 11 10 9 8 8 8 6 5 5 8 7 6 4 4 3 2 2 2 3 4 4 4 5 4 4 3 3 2 1
4 4 4 2 3 3 4 3 3 5 4 4 4 4 5 3 4 3 2 2 5 7 9 11 10 10 13 13 12 12 12 11 11 11 11 10 9 9 8 8 7 6 7 7 7 7 5 3 3 2 2 2 4 5 5 5 4 4 3 3 3 2 1
4 2 2 2 5 4 4 5 4 3 5 5 5 4 3 4 4 3 1 1 3 7 7 10 10 12 12 12 11 11 10 11 11 11 11 10 9 8 7 8 8 6 5 4 5 6 5 3 2 3 2 2 4 5 5 4 3 3 3 3 2 2 2
2 5 3 5 6 6 6 6 7 7 7 7 7 5 3 3 3 2 2 3 5 7 9 10 13 13 13 14 12 11 11 11 10 10 11 10 9 7 7 7 6 5 4 3 4 4 4 3 2 2 3 3 5 6 6 5 4 3 3 2 2 2 2
7 7 5 6 6 9 10 10 9 8 7 7 7 6 5 4 3 3 3 2 5 6 7 10 12 11 11 12 12 11 10 11 10 11 10 9 9 8 8 7 5 4 3 4 4 5 3 2 2 3 3 3 4 4 4 5 4 4 3 2 2 2 2
6 4 4 3 3 4 7 10 10 9 9 8 6 5 7 7 6 4 5 8 7 7 7 5 9 10 9 10 9 12 9 9 11 11 11 10 10 9 8 7 6 6 5 5 5 4 2 3 3 4 4 3 3 5 5 5 5 5 3 2 2 3 2
5 6 5 5 6 7 7 7 7 7 8 9 9 8 7 8 7 6 6 7 9 9 7 6 10 11 11 11 11 9 8 9 9 10 11 10 9 9 9 8 7 6 6 6 5 4 3 3 4 4 5 4 5 5 4 4 5 6 5 4 3 3 2
8 6 6 5 4 5 6 8 6 6 5 9 12 11 10 10 9 8 8 7 7 8 7 6 9 11 11 10 11 7 7 9 9 8 8 8 8 9 8 7 7 7 6 6 5 3 3 3 4 5 5 5 5 6 5 4 4 5 4 3 1 0 1
5 5 5 4 3 3 3 5 7 7 6 9 10 12 13 13 13 12 12 12 12 12 10 6 7 10 11 11 10 9 8 8 8 8 8 7 8 8 7 6 7 6 5 5 4 3 4 4 4 5 4 5 5 4 5 4 4 4 4 4 3 2 1
Wind_Direction
193 203 198 209 226 233 160 196 215 237 294 268 265 236 275 280 254 264 154 234 238 237 251 186 182 212 195 189 202 219 92 35 328 239 208 201 199 195 186 176 182 171 169 170 168 168 174 171 159 163 162 168 173 171 184 193 205 194 197 199 200 199 200
210 240 231 228 200 244 106 217 214 117 235 296 278 269 143 251 263 255 234 261 279 316 241 59 344 249 184 180 173 114 57 305 223 114 166 167 183 183 176 174 167 161 158 160 160 166 165 162 162 168 170 162 122 119 146 175 219 218 210 204 207 204 202
153 159 198 204 216 227 236 292 90 211 177 214 197 266 252 245 246 286 215 318 303 269 303 150 163 275 204 160 137 230 134 95 68 113 124 139 162 154 167 146 146 148 152 153 157 167 156 156 162 172 167 130 141 162 177 172 205 215 222 216 211 210 207
156 188 194 219 192 193 240 250 237 242 284 263 195 216 275 279 263 246 152 234 242 211 353 159 189 205 176 152 146 111 76 97 100 83 121 141 149 153 158 155 148 143 139 148 157 149 151 161 169 175 148 154 175 170 162 176 191 201 209 213 210 218 213
161 198 194 221 200 190 194 213 232 203 231 356 308 216 253 263 285 281 273 258 223 79 39 309 114 143 148 143 131 116 91 76 84 91 104 141 147 151 163 159 156 158 154 161 158 155 151 154 163 170 167 170 179 180 176 180 185 195 204 210 211 208 214
195 205 185 218 226 204 201 206 216 215 212 201 217 220 196 249 245 248 243 235 189 122 71 229 106 115 132 126 125 121 109 98 86 96 107 130 148 147 154 153 161 167 163 170 169 149 139 146 155 168 160 156 185 189 178 181 185 196 211 212 216 210 204
202 108 122 264 281 294 257 218 219 209 219 218 219 245 188 219 242 302 294 293 86 107 145 162 131 134 130 139 146 117 111 107 110 108 114 125 141 158 161 159 162 156 164 172 165 150 161 159 155 152 153 176 189 181 178 184 188 195 203 219 231 228 221
232 143 164 196 229 242 234 232 258 245 220 205 230 234 280 233 182 220 222 226 152 118 123 158 145 148 138 161 165 133 130 115 115 115 118 128 138 140 165 160 162 163 165 167 160 156 165 165 169 174 175 180 178 176 183 183 197 198 199 208 220 230 233
215 209 192 211 190 213 222 217 211 227 236 219 272 340 118 240 215 222 213 224 189 115 126 139 170 166 172 172 166 175 138 136 129 130 132 136 146 150 153 154 162 166 169 171 169 171 172 175 179 186 190 191 176 168 175 191 206 204 197 202 210 223 230
198 197 199 197 185 198 201 213 194 208 228 199 187 210 186 235 193 240 239 238 125 117 166 167 181 174 173 173 162 163 149 141 140 140 145 147 152 165 169 164 163 172 174 172 174 178 178 180 182 188 195 196 196 190 193 198 204 191 186 191 198 205 217
215 210 188 136 177 175 202 183 204 194 215 205 219 217 211 230 183 219 209 259 205 148 197 187 176 186 176 174 166 170 166 150 143 142 146 151 156 164 174 178 179 173 177 186 187 181 185 185 187 190 192 195 198 199 202 206 209 201 194 193 195 196 205
256 241 137 151 200 193 202 186 197 199 204 207 214 199 218 205 232 226 192 241 248 220 159 152 226 186 187 174 173 170 169 163 161 152 145 146 154 159 173 182 186 186 188 191 193 192 190 191 192 195 194 192 197 204 210 210 210 209 204 195 195 202 205
238 250 244 190 214 228 222 209 198 200 202 206 216 207 216 186 228 243 173 228 238 242 253 151 189 209 182 175 169 171 161 151 146 147 155 163 164 168 173 174 180 186 186 188 189 189 191 193 197 198 196 196 198 205 213 216 214 214 213 213 214 205 207
233 229 220 219 236 208 215 228 224 210 203 208 216 225 216 208 219 243 229 224 242 225 242 241 171 177 200 154 146 146 155 158 154 161 166 167 168 171 171 167 170 173 169 172 177 183 187 193 196 199 202 203 204 210 214 217 221 223 224 227 225 222 220
236 231 216 220 233 236 231 218 221 222 220 220 222 235 227 225 234 210 232 229 243 150 96 87 84 124 116 141 157 163 158 159 162 168 168 165 167 163 156 151 158 152 159 162 166 175 181 185 188 189 195 200 204 213 220 221 223 223 220 221 221 222 224
229 216 216 214 221 228 238 228 214 216 218 224 217 228 217 223 220 218 202 235 249 160 140 123 155 154 160 160 164 162 166 167 166 172 165 166 164 161 153 151 153 157 162 165 168 172 171 174 174 178 183 189 196 208 211 218 221 218 217 219 222 221 224
232 191 207 209 204 216 224 223 216 211 212 228 220 226 223 224 227 211 214 231 216 203 167 171 168 180 176 174 174 166 164 166 171 171 170 164 165 159 156 156 160 165 166 169 171 163 160 160 166 165 171 180 188 187 196 203 209 210 215 221 224 228 229
216 152 200 185 201 215 218 215 214 202 217 205 214 208 210 212 215 220 232 100 94 161 187 203 176 186 182 179 168 165 163 165 170 172 168 165 160 158 160 158 163 160 165 168 166 163 153 154 158 160 178 194 176 175 190 193 210 212 213 213 216 222 225
215 154 167 196 212 218 99 62 113 201 220 210 221 220 217 205 208 219 219 195 176 148 194 209 190 180 163 166 149 150 162 168 166 167 161 160 162 158 159 162 165 164 164 162 155 154 149 136 125 132 153 174 166 179 197 201 207 218 218 223 219 222 228
152 195 203 220 209 99 119 105 114 87 195 212 220 223 212 206 209 213 229 221 166 160 157 126 120 133 135 126 136 140 150 173 169 169 162 163 163 164 165 166 163 168 169 169 166 148 125 131 139 164 146 158 175 188 197 211 209 223 239 238 236 228 223
220 217 207 220 77 171 139 153 170 173 193 184 199 219 194 203 212 218 225 182 147 153 160 144 148 143 147 152 139 149 156 170 178 173 168 165 167 159 159 159 163 164 154 157 134 128 124 125 133 146 117 160 187 187 201 199 219 214 235 249 263 269 285
231 228 220 220 216 238 197 205 163 174 73 218 208 230 219 187 218 217 220 195 156 157 153 152 144 161 170 191 157 166 161 162 155 145 140 147 147 147 149 143 138 147 140 129 134 137 130 127 131 131 152 168 179 188 177 170 200 203 214 227 224 282 255
207 219 226 224 231 224 7 110 120 135 83 180 134 216 231 189 259 240 214 191 166 171 165 154 164 158 204 199 164 158 161 160 156 145 142 140 144 139 142 143 141 138 135 135 132 130 131 129 134 140 148 162 181 181 174 151 219 234 201 107 159 213 223
211 225 222 225 222 178 114 69 63 65 170 162 190 225 229 178 184 208 207 194 175 173 165 160 174 194 174 223 156 171 158 157 153 150 146 140 141 137 133 126 127 119 120 130 140 129 129 121 130 136 146 158 152 162 125 127 186 204 174 151 137 119 90
210 231 229 237 192 97 39 19 354 116 159 210 212 222 237 92 169 184 188 184 169 165 164 176 183 195 113 130 148 149 143 140 145 142 140 140 135 133 128 123 129 134 145 143 127 126 114 124 133 142 158 153 163 161 164 185 196 127 95 86 85 50 320
214 207 236 232 201 62 317 346 302 178 175 196 221 39 319 284 240 177 179 171 166 172 176 186 178 118 122 119 120 129 136 131 129 129 128 131 126 119 116 127 141 138 125 112 112 107 108 128 136 143 158 155 152 160 179 180 134 89 125 123 148 132 122
236 218 233 228 222 97 358 337 232 275 244 61 14 323 327 318 253 173 168 169 164 179 173 164 120 131 130 134 133 130 133 133 134 134 133 128 129 126 132 142 139 141 131 128 111 107 124 134 139 157 157 165 153 177 161 116 129 141 142 149 142 142 138
224 206 222 237 32 360 5 333 324 88 9 346 341 335 326 8 15 174 164 172 175 179 164 149 142 132 127 128 132 130 130 132 131 131 130 129 128 139 142 137 144 139 121 114 110 109 112 111 140 97 160 178 177 193 139 134 161 141 142 136 137 136 135
270 314 36 58 48 354 356 332 344 312 330 330 321 307 303 300 23 15 249 157 170 181 160 151 145 140 135 134 137 136 134 136 136 134 135 132 138 137 135 132 129 121 118 119 123 126 127 143 134 156 178 192 172 160 131 156 153 157 151 156 161 160 183
125 103 31 58 93 23 6 5 7 331 346 347 324 324 318 0 336 341 335 70 160 169 166 153 157 142 134 132 131 130 136 134 128 127 127 130 131 131 128 127 122 113 115 121 125 122 127 135 142 162 206 209 178 145 162 162 164 147 151 147 152 164 172
204 147 132 92 56 50 33 14 20 21 20 355 342 334 326 343 332 330 158 261 165 158 157 157 141 128 127 120 117 119 125 126 130 132 130 130 135 136 135 126 131 135 141 133 128 131 130 144 156 161 185 204 126 142 161 165 154 146 170 163 172 194 176
216 109 102 85 79 68 42 24 19 17 10 6 359 358 344 329 334 328 102 172 168 157 163 159 149 141 136 130 129 133 132 133 131 129 132 134 131 129 127 136 142 139 138 123 123 123 116 127 175 212 170 176 145 158 162 175 163 165 179 199 186 167 180
94 114 121 105 101 75 57 50 41 31 14 359 9 17 21 30 45 55 87 89 131 157 155 168 157 143 135 135 138 140 141 136 137 134 134 135 132 136 140 136 144 129 127 116 118 120 114 140 174 199 196 173 158 171 178 160 163 167 152 176 223 185 179
170 122 95 347 212 96 56 42 35 28 24 29 37 39 47 43 43 50 91 104 106 112 116 155 166 129 124 129 141 137 150 144 136 137 137 139 140 139 135 139 133 120 119 125 123 121 110 155 180 200 179 171 185 183 171 168 164 152 160 177 186 207 210
104 81 76 50 71 84 47 44 34 33 29 42 49 47 54 58 55 58 81 95 103 95 83 120 134 123 119 121 123 133 144 139 143 145 144 143 144 144 142 140 138 136 129 124 125 124 133 167 194 199 185 189 188 188 186 176 170 158 171 179 201 188 212
79 54 66 44 48 68 69 57 42 45 27 50 57 57 61 61 61 66 69 69 77 77 73 74 102 108 108 110 101 110 143 144 141 144 148 148 141 142 146 144 143 139 136 134 134 131 144 181 194 209 196 192 192 194 193 193 180 174 174 163 197 195 274
46 15 30 32 21 30 72 72 53 58 48 44 58 57 53 55 55 58 57 52 54 57 39 16 81 95 105 105 123 157 160 144 142 133 127 127 136 148 147 145 146 145 142 135 143 142 162 189 200 216 201 195 194 201 188 201 200 183 168 157 154 162 168